Location: Newark
(48.1500°N, 2.9667°W)
Time: 04:38:48
(UTC+00:00)

Courier 1B - All Passes

Search period start: 24 January 2020 00:00
Search period end: 03 February 2020 00:00
Orbit: 962 x 1209 km, 28.3° (Epoch: 23 January)

Date Brightness Start Highest point End Pass type
(mag) Time Alt. Az. Time Alt. Az. Time Alt. Az.
24 Jan - 04:18:08 10° SSW 04:21:58 15° S 04:25:53 10° SE visible
24 Jan - 06:10:33 10° SW 06:14:47 16° S 06:19:04 10° SSE visible
25 Jan - 03:25:21 10° SSW 03:28:28 13° SSE 03:31:37 10° SE visible
25 Jan - 05:16:57 10° SW 05:21:14 16° S 05:25:35 10° SSE visible
25 Jan - 07:11:41 10° SW 07:14:01 11° SSW 07:16:21 10° S visible
26 Jan - 02:33:21 10° S 02:34:59 11° SSE 02:36:39 10° SSE visible
26 Jan - 04:23:34 10° SSW 04:27:41 16° S 04:31:55 10° SE visible
26 Jan - 06:17:14 10° SW 06:20:29 13° SSW 06:23:47 10° SSE visible
27 Jan - 03:30:24 10° SSW 03:34:09 15° S 03:38:02 10° SE visible
27 Jan - 05:23:16 10° SW 05:26:57 14° S 05:30:43 10° SSE visible
28 Jan - 02:37:30 10° SSW 02:40:41 13° S 02:43:56 10° SE visible
28 Jan - 04:29:34 10° SW 04:33:25 15° S 04:37:22 10° SSE visible
29 Jan - 01:45:06 10° S 01:47:14 11° SSE 01:49:24 10° SSE night (unlit)
29 Jan - 03:36:07 10° SSW 03:39:55 15° S 03:43:48 10° SSE visible
29 Jan - 05:30:39 10° SSW 05:32:40 11° SSW 05:34:41 10° S visible
30 Jan - 02:42:51 10° SSW 02:46:25 14° S 02:50:04 10° SE visible
30 Jan - 04:36:19 10° SW 04:39:10 13° SSW 04:42:04 10° SSE visible
31 Jan - 01:49:51 10° SSW 01:52:58 13° S 01:56:08 10° SE night (unlit)
31 Jan - 03:42:28 10° SW 03:45:40 13° S 03:48:57 10° SSE visible
01 Feb - 00:57:12 10° S 00:59:32 12° SSE 01:01:54 10° SSE night (unlit)
01 Feb - 02:48:53 10° SSW 02:52:12 14° S 02:55:34 10° SSE visible
02 Feb - 00:06:01 10° SSE 00:06:08 10° SSE 00:06:15 10° SSE night (unlit)
02 Feb - 01:55:31 10° SSW 01:58:44 14° S 02:02:01 10° SSE night (unlit)
02 Feb - 03:50:14 10° SSW 03:51:25 10° SSW 03:52:35 10° S visible
